Wind_Speed
16 17 16 16 17 18 18 19 19 19 19 18 19 19 19 20 23 18 13 21 19 25 12 11 15 18 19 9 13 13 5 12 17 16 17 10 7 7 6 4 3 8 7 12 29
19 18 20 21 21 21 21 21 21 20 20 20 21 20 19 20 24 19 30 28 22 21 23 17 14 15 9 9 10 11 8 21 16 18 18 10 8 8 7 9 5 5 9 23 29
21 21 21 22 23 23 23 23 22 22 21 21 21 20 17 18 5 9 3 13 35 28 26 24 20 14 15 16 18 17 17 18 17 22 20 14 9 8 11 7 3 10 11 11 10
20 21 21 22 23 23 23 23 24 23 24 23 21 21 16 8 6 5 6 14 8 31 25 21 15 13 18 20 20 18 21 22 23 22 19 10 7 9 14 9 5 8 15 9 9
20 20 21 22 22 23 24 23 22 22 23 22 22 18 8 7 12 23 21 8 4 21 27 16 14 17 19 21 17 22 23 23 23 22 10 7 9 15 19 7 1 10 11 12 11
19 19 20 22 22 23 24 25 25 24 23 21 20 16 5 16 25 31 30 24 14 20 23 19 12 19 12 18 22 21 19 21 23 20 8 10 17 17 12 6 7 8 9 10 11
19 20 22 22 21 21 24 25 27 28 26 22 17 11 11 22 15 16 18 22 20 24 15 27 27 15 8 15 15 17 22 24 22 14 15 14 18 16 10 8 10 10 10 10 10
20 21 21 21 22 23 25 27 30 30 28 22 15 8 10 13 19 29 39 32 28 27 30 28 27 18 16 9 15 17 17 18 12 11 20 13 21 15 11 9 10 11 10 9 11
23 23 22 21 21 23 26 29 33 31 26 18 9 8 10 14 22 45 34 26 23 26 32 26 19 12 8 17 13 11 15 16 17 18 22 12 19 16 11 9 9 11 8 9 10
23 24 24 23 24 25 27 33 33 23 15 9 14 6 10 11 16 25 33 29 12 12 15 17 12 17 14 10 17 13 11 14 18 23 18 14 14 10 11 11 12 9 10 9 9
23 24 25 25 23 24 28 17 2 3 8 11 15 13 12 22 11 16 20 21 18 11 14 12 9 19 24 22 14 14 14 20 23 21 21 4 22 13 10 8 8 10 9 10 10
24 23 23 24 24 23 22 4 13 8 11 19 27 25 32 30 14 17 24 16 15 20 16 12 26 21 19 16 19 18 19 23 23 20 5 18 22 16 9 7 9 11 10 6 11
25 23 22 23 24 23 13 17 26 24 7 14 24 28 21 19 26 24 16 20 19 21 21 26 13 19 20 18 18 21 20 21 19 21 17 5 6 6 5 5 7 10 8 16 21
23 21 20 20 14 13 17 19 27 21 5 10 12 13 20 14 20 28 32 16 14 25 23 21 18 19 23 23 22 21 19 22 22 17 8 1 6 4 6 10 10 12 10 16 18
24 21 18 13 15 10 16 30 34 10 6 8 14 14 18 27 13 19 37 21 21 21 20 21 25 25 24 24 24 22 16 20 22 16 7 5 2 5 4 9 14 5 11 16 18
24 21 16 11 18 22 21 30 16 3 11 8 6 16 16 27 17 3 29 25 16 19 24 21 14 21 29 24 25 24 16 17 16 9 3 6 6 9 6 7 6 4 7 15 15
24 18 16 12 10 16 18 10 3 8 10 6 5 14 20 17 25 17 23 26 24 21 24 22 27 24 21 22 23 20 14 9 3 1 6 5 4 10 10 8 7 9 13 13 15
24 17 15 16 18 16 7 3 11 13 24 25 23 25 14 12 22 29 14 25 25 23 10 15 14 29 24 27 20 18 15 7 7 4 5 8 8 14 15 10 10 14 14 14 14
22 17 18 20 18 16 2 10 9 16 17 18 29 20 8 21 14 25 27 28 29 29 17 19 18 14 27 20 23 16 13 13 5 1 2 5 7 3 9 8 11 16 16 13 13
9 11 15 14 17 11 3 11 11 13 18 20 20 16 22 23 17 17 15 28 27 30 20 8 4 21 22 19 20 24 6 6 1 8 5 5 6 5 8 9 12 13 12 10 9
5 3 7 7 13 2 4 7 13 17 21 21 21 21 22 20 18 18 12 12 27 27 31 18 5 9 20 22 25 13 10 4 7 6 5 2 7 8 7 14 14 14 13 14 14
2 3 7 16 2 2 2 7 7 16 19 19 19 18 17 19 21 18 14 11 13 19 31 28 6 11 16 18 23 15 9 7 9 5 5 6 6 8 13 12 13 15 13 11 12
3 3 1 9 2 2 9 17 17 18 17 17 19 20 12 16 8 12 12 21 19 19 26 23 20 4 8 8 12 15 15 10 6 6 9 5 5 6 9 11 15 14 13 12 10
3 4 1 2 4 5 9 9 12 10 12 11 13 19 10 15 15 15 26 17 27 20 24 25 12 20 10 8 13 22 19 17 10 5 7 9 7 4 9 12 10 13 13 14 12
2 3 3 3 4 7 6 9 16 11 14 12 9 14 9 9 16 18 19 26 22 10 17 4 25 12 22 23 11 23 22 20 17 12 13 8 7 11 12 11 18 16 16 15 13
2 3 4 8 8 9 8 8 15 17 12 11 12 16 16 12 12 21 16 14 12 12 18 10 12 21 19 19 22 17 26 21 19 12 9 10 10 9 8 9 13 19 19 18 16
4 7 3 5 6 5 3 8 13 12 13 11 12 10 9 5 3 12 12 17 20 20 17 8 5 13 22 18 10 18 22 24 20 10 13 14 7 5 6 11 14 20 20 20 18
Wind_Direction
334 332 331 332 336 335 330 323 321 316 312 311 312 306 315 319 309 296 237 238 241 231 217 198 211 233 242 218 227 249 250 262 267 274 278 317 355 329 336 142 203 177 152 154 159
331 330 332 333 333 334 334 329 323 318 315 311 302 306 315 321 313 260 269 258 228 237 214 201 204 216 230 241 226 229 236 249 259 269 279 301 330 329 351 312 261 98 94 142 158
321 322 326 330 331 328 326 328 327 325 316 307 304 304 311 320 285 246 314 271 231 229 231 221 224 204 230 240 238 240 241 251 254 259 274 287 324 309 304 297 304 162 155 160 155
316 314 313 315 318 320 325 325 325 322 317 312 311 305 307 299 238 166 44 349 258 219 211 221 238 232 230 235 237 245 245 249 255 259 255 263 294 294 278 251 249 147 163 156 167
313 309 307 306 308 311 313 316 318 318 318 321 318 313 323 229 234 235 293 326 285 209 213 220 228 237 236 234 243 242 246 253 261 266 251 273 264 262 269 267 142 147 146 172 179
319 316 315 309 304 305 304 305 307 308 311 313 318 322 223 243 254 253 261 272 246 197 213 218 226 234 270 236 241 248 257 255 256 268 251 260 265 263 252 249 201 157 163 172 179
317 320 318 313 305 303 302 302 302 301 302 306 311 295 251 236 249 256 265 248 237 211 212 223 230 241 236 267 259 265 268 272 270 267 267 253 253 256 251 220 213 197 203 204 195
322 313 319 318 311 304 303 301 297 297 298 299 299 271 253 264 261 256 247 259 253 240 204 226 224 235 247 272 283 279 273 263 257 270 267 254 259 245 233 218 237 225 219 190 196
328 328 315 316 315 313 308 304 293 289 291 290 279 203 268 266 233 234 233 227 243 259 213 219 223 215 232 233 259 255 258 262 269 246 262 243 253 257 202 214 248 227 218 212 205
323 325 325 314 313 314 312 309 295 291 283 238 237 229 259 235 232 231 229 228 221 241 223 222 227 231 240 227 228 234 255 252 258 258 256 265 310 202 204 203 228 240 218 216 151
325 318 321 323 311 315 321 337 258 165 221 206 191 210 268 217 268 226 205 202 222 235 228 202 217 226 220 228 231 238 243 246 254 255 249 344 269 254 208 219 226 235 234 231 164
321 321 312 316 315 308 307 257 274 339 287 244 242 233 246 275 290 285 199 191 197 219 213 226 229 221 235 224 240 227 245 259 272 277 229 209 248 249 208 215 219 229 246 209 121
322 313 313 311 317 302 248 235 292 286 265 259 239 237 231 239 251 254 240 208 195 211 209 217 227 220 234 226 234 238 231 250 259 277 285 284 320 313 265 249 275 250 221 138 145
319 311 308 308 304 311 284 317 325 241 279 264 219 245 217 211 256 229 244 211 210 209 212 235 221 221 215 229 225 239 222 236 250 260 260 337 283 302 302 299 295 275 129 143 152
318 315 300 282 292 316 288 327 324 171 274 218 215 186 192 190 142 205 220 221 213 206 203 211 209 215 227 216 227 240 222 230 240 249 239 282 286 251 269 289 291 187 151 155 158
317 306 297 279 257 271 305 313 305 221 245 268 151 182 161 205 219 68 186 216 209 219 224 223 229 212 227 230 221 230 232 239 240 231 236 222 180 269 234 234 210 142 144 148 139
321 302 281 254 258 284 319 323 243 223 281 248 348 175 187 190 210 239 183 202 208 200 217 220 222 230 230 221 231 219 220 238 288 230 220 218 280 248 264 229 171 131 118 126 131
323 303 281 246 256 264 290 251 222 238 250 290 324 325 298 179 205 211 209 205 212 213 174 208 222 214 215 223 218 223 203 200 209 182 244 252 243 249 236 209 119 137 129 123 129
318 305 263 248 236 239 122 225 226 242 280 302 331 315 341 350 326 201 218 206 210 209 209 195 226 185 217 219 215 231 207 190 167 257 197 235 277 22 144 138 121 129 130 134 136
305 297 268 248 218 215 199 243 248 262 279 304 318 309 323 329 330 354 218 218 212 211 219 254 219 230 208 214 240 212 178 152 74 201 246 294 299 234 156 178 115 129 133 136 138
316 305 272 207 179 177 236 250 279 265 276 292 306 311 311 317 307 314 268 298 207 201 209 219 220 238 210 205 215 220 203 143 133 148 170 225 270 211 161 136 133 143 146 148 150
12 289 333 169 154 208 230 241 253 295 295 298 288 284 288 316 314 300 265 254 293 194 203 212 204 234 232 211 204 212 171 150 180 212 205 178 264 133 147 149 136 146 148 147 151
283 260 228 140 258 189 266 273 266 269 288 304 296 296 306 299 302 291 291 324 339 337 203 199 226 287 242 277 208 197 183 181 137 140 203 166 243 210 131 135 142 144 152 145 144
300 315 242 154 180 210 276 283 286 272 276 293 304 290 259 276 268 287 308 312 331 326 330 181 198 214 227 208 195 192 182 192 168 170 175 209 231 177 142 152 147 152 148 152 154
262 271 304 304 321 308 277 278 292 282 276 271 310 312 249 273 293 283 307 317 324 333 348 296 204 193 224 247 254 191 187 182 203 188 185 193 198 183 170 168 163 161 153 156 155
273 322 348 301 299 312 298 262 274 288 279 286 245 253 274 231 267 293 310 321 297 328 348 321 222 199 228 227 239 225 188 190 206 191 191 170 216 184 207 183 144 161 162 164 167
292 311 270 284 290 305 265 316 295 292 293 278 307 331 319 278 9 280 278 267 269 284 302 280 319 187 217 226 244 238 203 194 203 197 181 198 175 239 165 192 156 164 166 170 175
Height
816 813 813 810 805 801 799 798 796 795 793 792 792 793 788 785 783 780 775 765 766 769 771 771 774 775 776 774 774 774 802 800 789 782 765 745 747 731 725 733 730 730 733 736 744
811 810 807 802 799 797 795 794 793 792 789 788 792 788 786 783 780 769 758 757 760 764 768 767 769 772 775 770 771 780 794 782 764 759 757 748 744 740 740 739 736 734 733 738 742
807 805 802 800 799 798 795 794 792 788 788 789 787 784 784 782 777 753 750 748 751 758 762 763 765 767 775 768 766 768 780 760 755 747 741 744 742 734 741 747 732 738 737 737 739
808 805 803 800 798 796 794 792 788 786 787 788 783 782 779 781 783 747 744 748 746 752 759 760 760 768 770 771 757 771 758 752 746 739 739 744 733 738 735 734 719 722 727 733 738
808 805 803 800 798 795 792 791 789 788 787 781 780 779 776 774 757 747 743 745 747 749 753 755 761 759 767 756 759 761 751 743 736 732 733 730 736 735 732 721 716 719 723 730 733
805 802 800 797 794 792 790 788 785 784 783 782 779 775 775 769 744 744 744 746 746 748 748 750 750 747 753 753 756 745 743 738 732 730 727 732 730 728 723 712 715 717 721 723 726
800 798 795 793 790 787 784 781 779 777 776 775 774 774 768 742 739 737 739 738 741 741 741 742 744 748 744 753 740 741 749 737 732 727 727 721 736 731 716 711 716 718 716 717 718
796 793 791 788 785 783 779 775 772 770 769 769 769 770 751 733 731 729 729 731 733 736 733 735 736 741 747 743 743 752 747 756 733 726 716 725 744 720 708 712 716 713 711 711 714
793 789 786 784 781 777 774 770 765 762 762 764 766 764 744 727 722 712 720 724 725 728 727 728 733 742 743 756 763 752 765 755 739 718 719 724 730 708 701 706 713 711 709 707 709
789 786 783 779 776 774 770 763 751 754 754 759 760 764 734 712 706 704 708 717 719 721 722 727 734 745 744 753 766 765 759 746 742 717 717 722 719 705 700 702 707 706 704 702 706
787 783 780 777 774 771 767 760 748 751 747 732 725 716 698 700 699 697 701 709 716 719 733 724 744 742 736 734 736 742 745 744 724 707 719 721 720 709 698 699 704 705 701 699 702
784 780 777 774 770 769 768 766 753 755 741 721 714 709 705 701 704 693 695 707 714 723 722 734 726 721 721 724 732 734 741 739 722 706 712 715 717 704 694 697 695 695 693 694 705
780 777 775 771 767 763 760 757 746 750 743 707 699 696 699 704 696 692 687 692 702 716 715 722 710 713 718 722 728 728 735 734 734 710 700 709 721 708 690 685 684 683 680 692 699
778 774 772 769 768 761 754 750 744 745 745 697 680 667 680 693 686 675 675 684 692 704 709 709 704 707 714 718 718 732 711 716 718 724 746 701 758 718 703 700 689 680 686 692 697
774 771 769 768 765 761 751 747 739 739 755 662 651 640 646 662 654 656 662 672 685 689 698 695 697 703 706 704 702 711 698 704 707 718 724 719 743 726 701 708 695 683 686 688 691
769 767 765 764 762 755 752 750 744 750 734 659 624 636 650 653 650 640 654 664 668 681 679 685 677 686 690 687 687 686 698 700 703 714 749 727 737 723 718 701 688 675 675 686 694
764 762 761 761 757 755 755 753 756 734 678 652 644 635 641 651 661 653 665 673 678 694 689 682 678 673 670 689 681 687 709 740 755 751 761 712 728 718 693 683 677 686 687 690 694
759 757 754 753 754 755 756 760 747 703 702 653 671 655 660 638 648 651 659 671 663 664 684 692 699 668 655 668 682 686 697 728 761 760 742 708 731 704 675 670 671 675 682 689 696
755 751 747 746 750 753 760 751 728 712 692 679 683 677 658 653 645 645 652 654 649 652 676 680 675 641 647 650 661 679 691 680 712 708 735 722 699 672 669 674 677 682 685 694 698
752 749 741 741 744 750 756 737 721 712 703 701 709 693 695 685 679 667 643 632 642 643 647 654 681 646 641 645 647 658 660 700 715 744 753 726 717 714 689 683 683 689 693 697 699
752 748 737 737 743 750 745 737 721 716 716 716 712 708 701 700 686 683 656 632 621 630 639 649 662 654 645 651 657 659 671 677 695 715 747 750 735 677 679 678 684 687 688 692 696
754 751 736 737 747 750 743 733 721 718 713 712 709 705 704 699 693 689 666 647 620 616 639 632 658 671 652 625 626 641 661 674 695 719 712 725 725 666 671 672 675 681 685 690 693
753 745 737 738 743 744 738 729 719 717 712 714 708 700 696 707 711 683 659 642 638 643 617 628 652 681 660 647 629 643 640 653 675 690 711 726 725 666 664 669 669 678 681 687 694
755 750 738 741 742 742 735 725 720 708 707 709 707 701 697 698 695 683 671 646 645 638 624 610 636 648 662 642 629 642 641 645 670 700 696 693 690 675 672 673 675 676 681 685 691
755 747 739 743 738 732 731 727 722 716 706 702 712 693 691 696 696 690 679 664 649 635 635 623 627 632 629 624 623 623 632 641 654 668 683 681 680 672 666 665 666 668 675 683 689
757 750 744 744 732 727 726 719 713 705 697 696 701 697 690 690 692 695 691 687 674 648 656 640 621 619 629 615 619 624 619 628 636 649 660 665 672 656 652 650 659 664 670 677 681
753 750 748 741 735 732 726 717 712 704 695 689 685 690 686 685 693 689 687 682 675 672 667 659 634 624 637 621 625 641 619 621 627 635 644 665 657 642 651 650 656 658 662 669 672